sat.trackr.live / text

‹ back to catalog

2024-203B

NORAD 61870 · 2024-203B

PAYLOAD ACTIVE UNKNOWN

§ Identity

Operator
Country
PRC
Launch date
2024-11-09
Launch site
JSC
Launch vehicle
Mass (kg)
RCS (m²)

External: N2YO · Heavens-Above · Gunter

§ Orbital elements

Epoch: 2026-05-25T04:36:25.608384Z

Period
94.14 min
Inclination
97.4185°
Eccentricity
0.0012249
Mean motion
15.29560114 rev/d
Perigee alt
468.7 km
Apogee alt
485.5 km
Semi-major
6,855.3 km
B*
5.0268e-4
RAAN
215.5502°
Arg perigee
54.7097°
Mean anomaly
305.5287°
Rev number
8,545

§ Raw data

2024-203B1 61870U 24203B   26145.19196306  .00014369  00000+0  50268-3 0  99922 61870  97.4185 215.5502 0012249  54.7097 305.5287 15.29560114 85454

JSON: /api/v1/satellites/61870 · /tle

For live sub-satellite position, see the globe view (requires WebGL).

§ Visibility from observer

Set your observer location to see the next 7 days of passes ≥ 10°. The values pass through the URL so the page stays shareable.

No JS? Fill the form by hand. The geolocation button needs JavaScript.